Location: Treviso
(45.6669°N, 12.2430°E)
Time: 17:14:43
(UTC+02:00)

CUBESAT XI-V - Pass Details

Date: 27 April 2019
Orbit: 668 x 694 km, 98.0° (Epoch: 24 May)

Event Time Altitude Azimuth Distance (km) Brightness Sun altitude
Exits shadow 02:18:54 - 104° (ESE) 2,316 ? -28.6°
Reaches altitude 10° 02:19:35 10° 98° (E) 2,138 ? -28.5°
Maximum altitude 02:22:25 16° 61° (ENE) 1,751 ? -28.4°
Drops below altitude 10° 02:25:16 10° 23° (NNE) 2,137 ? -28.2°
Sets 02:28:15 0° 3° (N) 3,053 ? -28.0°
